• In France
  • List of Countries
  • For 7 days
  • Water Temperature
  • Satellite Maps
  • Weather Map
  • Weather Widgets
  • user-avatar
    Login

    Hourly Weather Oborino

    Today, 22 September, Saturday

    Time Temperature Precipitation Wind Pressure Humidity
    00:00 +16°C° 0 mm 2 mps 752 mmHg 82%
    01:00 +16°C° 0 mm 2 mps 752 mmHg 84%
    02:00 +15°C° 0 mm 2 mps 752 mmHg 86%
    03:00 +15°C° 0 mm 2 mps 752 mmHg 88%
    04:00 +15°C° 0 mm 2 mps 751 mmHg 89%
    05:00 +15°C° 0 mm 2 mps 751 mmHg 90%
    06:00 +14°C° 0 mm 2 mps 751 mmHg 90%
    07:00 +16°C° 0 mm 2 mps 751 mmHg 84%
    08:00 +18°C° 0 mm 3 mps 751 mmHg 79%
    09:00 +19°C° 0 mm 3 mps 751 mmHg 73%
    10:00 +21°C° 0 mm 3 mps 750 mmHg 67%
    11:00 +23°C° 0 mm 4 mps 750 mmHg 62%
    12:00 +26°C° 0 mm 5 mps 750 mmHg 56%
    13:00 +26°C° 0 mm 5 mps 749 mmHg 54%
    14:00 +27°C° 0 mm 5 mps 749 mmHg 52%
    15:00 +27°C° 0 mm 5 mps 748 mmHg 50%
    16:00 +26°C° 0 mm 5 mps 748 mmHg 54%
    17:00 +25°C° 0 mm 4 mps 748 mmHg 59%
    18:00 +22°C° 0 mm 4 mps 747 mmHg 63%
    19:00 +21°C° 0.1 mm 4 mps 747 mmHg 66%
    20:00 +21°C° 0.1 mm 4 mps 746 mmHg 69%
    21:00 +20°C° 0.1 mm 4 mps 746 mmHg 72%
    22:00 +19°C° 0.1 mm 4 mps 745 mmHg 73%
    23:00 +19°C° 0.1 mm 4 mps 745 mmHg 74%

    Tomorrow, 23 September, Sunday

    Time Temperature Precipitation Wind Pressure Humidity
    00:00 +19°C° 0.1 mm 4 mps 745 mmHg 75%
    01:00 +18°C° 0.2 mm 4 mps 744 mmHg 76%
    02:00 +18°C° 0.2 mm 4 mps 744 mmHg 77%
    03:00 +17°C° 0.2 mm 4 mps 744 mmHg 77%
    04:00 +17°C° 0.2 mm 4 mps 744 mmHg 79%
    05:00 +16°C° 0.2 mm 3 mps 743 mmHg 81%
    06:00 +16°C° 0.2 mm 3 mps 743 mmHg 84%
    07:00 +14°C° 0.7 mm 3 mps 743 mmHg 84%
    08:00 +14°C° 0.7 mm 3 mps 743 mmHg 84%
    09:00 +14°C° 0.7 mm 3 mps 742 mmHg 85%
    10:00 +13°C° 1.7 mm 4 mps 742 mmHg 86%
    11:00 +10°C° 1.7 mm 5 mps 743 mmHg 86%
    12:00 +9°C° 1.7 mm 6 mps 743 mmHg 87%
    13:00 +9°C° 0.7 mm 5 mps 743 mmHg 85%
    14:00 +11°C° 0.7 mm 4 mps 744 mmHg 84%
    15:00 +11°C° 0.7 mm 3 mps 745 mmHg 82%
    16:00 +11°C° 0 mm 3 mps 745 mmHg 82%
    17:00 +11°C° 0 mm 3 mps 745 mmHg 83%
    18:00 +12°C° 0 mm 2 mps 745 mmHg 83%
    19:00 +12°C° 0 mm 2 mps 745 mmHg 85%
    20:00 +10°C° 0 mm 2 mps 745 mmHg 87%
    21:00 +10°C° 0 mm 2 mps 745 mmHg 89%
    22:00 +9°C° 0 mm 2 mps 745 mmHg 90%
    23:00 +9°C° 0 mm 2 mps 745 mmHg 90%

    Day after tomorrow, 24 September, Monday

    Time Temperature Precipitation Wind Pressure Humidity
    00:00 +9°C° 0 mm 2 mps 745 mmHg 90%
    01:00 +8°C° 0 mm 2 mps 745 mmHg 91%
    02:00 +8°C° 0 mm 2 mps 745 mmHg 92%
    03:00 +8°C° 0 mm 2 mps 745 mmHg 93%
    04:00 +7°C° 0 mm 2 mps 745 mmHg 93%
    05:00 +7°C° 0 mm 2 mps 745 mmHg 94%
    06:00 +7°C° 0 mm 2 mps 745 mmHg 94%
    07:00 +8°C° 0 mm 2 mps 745 mmHg 90%
    08:00 +9°C° 0 mm 2 mps 745 mmHg 86%
    09:00 +10°C° 0 mm 3 mps 745 mmHg 81%
    10:00 +11°C° 0 mm 3 mps 745 mmHg 74%
    11:00 +13°C° 0 mm 3 mps 744 mmHg 67%
    12:00 +14°C° 0 mm 3 mps 744 mmHg 59%
    13:00 +14°C° 0.2 mm 4 mps 744 mmHg 62%
    14:00 +14°C° 0.2 mm 4 mps 743 mmHg 64%
    15:00 +13°C° 0.2 mm 4 mps 743 mmHg 66%
    16:00 +12°C° 1.1 mm 4 mps 742 mmHg 73%
    17:00 +10°C° 1.1 mm 5 mps 741 mmHg 79%
    18:00 +9°C° 1.1 mm 5 mps 741 mmHg 86%
    19:00 +9°C° 1.9 mm 6 mps 739 mmHg 87%
    20:00 +8°C° 1.9 mm 7 mps 737 mmHg 88%
    21:00 +7°C° 1.9 mm 8 mps 736 mmHg 90%
    22:00 +9°C° 2.5 mm 7 mps 734 mmHg 90%
    23:00 +9°C° 2.5 mm 7 mps 732 mmHg 90%

    25 September, Tuesday

    Time Temperature Precipitation Wind Pressure Humidity
    00:00 +10°C° 2.5 mm 7 mps 731 mmHg 90%
    01:00 +9°C° 0.6 mm 6 mps 730 mmHg 89%
    02:00 +9°C° 0.6 mm 6 mps 729 mmHg 88%
    03:00 +8°C° 0.6 mm 5 mps 728 mmHg 88%
    04:00 +8°C° 0.8 mm 5 mps 728 mmHg 89%
    05:00 +8°C° 0.8 mm 4 mps 728 mmHg 91%
    06:00 +8°C° 0.8 mm 4 mps 728 mmHg 92%
    07:00 +8°C° 0.5 mm 4 mps 728 mmHg 91%
    08:00 +8°C° 0.5 mm 5 mps 729 mmHg 91%
    09:00 +8°C° 0.5 mm 5 mps 729 mmHg 90%
    10:00 +8°C° 0.5 mm 6 mps 730 mmHg 89%
    11:00 +8°C° 0.5 mm 6 mps 731 mmHg 87%
    12:00 +8°C° 0.5 mm 7 mps 732 mmHg 86%
    13:00 +8°C° 0.6 mm 7 mps 733 mmHg 85%
    14:00 +6°C° 0.6 mm 8 mps 734 mmHg 85%
    15:00 +6°C° 0.6 mm 8 mps 736 mmHg 84%
    16:00 +6°C° 0.6 mm 8 mps 737 mmHg 84%
    17:00 +6°C° 0.6 mm 8 mps 738 mmHg 83%
    18:00 +6°C° 0.6 mm 8 mps 739 mmHg 82%
    19:00 +5°C° 0.1 mm 8 mps 740 mmHg 81%
    20:00 +5°C° 0.1 mm 8 mps 741 mmHg 80%
    21:00 +5°C° 0.1 mm 7 mps 742 mmHg 79%
    22:00 +5°C° 0 mm 7 mps 743 mmHg 79%
    23:00 +4°C° 0 mm 7 mps 744 mmHg 78%

    26 September, Wednesday

    Time Temperature Precipitation Wind Pressure Humidity
    00:00 +4°C° 0 mm 7 mps 744 mmHg 78%
    01:00 +3°C° 0 mm 6 mps 745 mmHg 78%
    02:00 +3°C° 0 mm 6 mps 746 mmHg 78%
    03:00 +2°C° 0 mm 6 mps 747 mmHg 77%
    04:00 +2°C° 0 mm 5 mps 747 mmHg 77%
    05:00 +1°C° 0 mm 5 mps 747 mmHg 77%
    06:00 +1°C° 0 mm 4 mps 748 mmHg 76%
    07:00 +1°C° 0 mm 5 mps 748 mmHg 74%
    08:00 +2°C° 0 mm 5 mps 748 mmHg 72%
    09:00 +3°C° 0 mm 5 mps 748 mmHg 70%
    10:00 +5°C° 0.1 mm 5 mps 748 mmHg 71%
    11:00 +6°C° 0.1 mm 5 mps 748 mmHg 71%
    12:00 +5°C° 0.1 mm 6 mps 747 mmHg 71%
    13:00 +6°C° 0.7 mm 5 mps 747 mmHg 75%
    14:00 +6°C° 0.7 mm 5 mps 747 mmHg 79%
    15:00 +6°C° 0.7 mm 5 mps 746 mmHg 84%
    16:00 +5°C° 0.3 mm 4 mps 746 mmHg 85%
    17:00 +5°C° 0.3 mm 4 mps 746 mmHg 86%
    18:00 +5°C° 0.3 mm 3 mps 745 mmHg 88%
    19:00 +5°C° 0 mm 3 mps 745 mmHg 90%
    20:00 +5°C° 0 mm 2 mps 745 mmHg 92%
    21:00 +5°C° 0 mm 2 mps 745 mmHg 94%
    22:00 +5°C° 0.3 mm 3 mps 744 mmHg 93%
    23:00 +5°C° 0.3 mm 3 mps 744 mmHg 93%

    27 September, Thursday

    Time Temperature Precipitation Wind Pressure Humidity
    00:00 +5°C° 0.3 mm 3 mps 744 mmHg 93%
    01:00 +6°C° 0.5 mm 4 mps 743 mmHg 92%
    02:00 +6°C° 0.5 mm 5 mps 742 mmHg 91%
    03:00 +7°C° 0.5 mm 5 mps 741 mmHg 90%
    04:00 +7°C° 1.3 mm 6 mps 740 mmHg 90%
    05:00 +7°C° 1.3 mm 6 mps 739 mmHg 90%
    06:00 +6°C° 1.3 mm 7 mps 738 mmHg 90%
    07:00 +6°C° 0.5 mm 7 mps 737 mmHg 89%
    08:00 +8°C° 0.5 mm 7 mps 737 mmHg 87%
    09:00 +8°C° 0.5 mm 7 mps 737 mmHg 86%
    10:00 +9°C° 0.5 mm 7 mps 737 mmHg 84%
    11:00 +10°C° 0.5 mm 7 mps 737 mmHg 83%
    12:00 +11°C° 0.5 mm 7 mps 737 mmHg 81%
    13:00 +11°C° 0.2 mm 6 mps 737 mmHg 77%
    14:00 +11°C° 0.2 mm 6 mps 738 mmHg 74%
    15:00 +12°C° 0.2 mm 5 mps 738 mmHg 70%
    16:00 +10°C° 0.3 mm 5 mps 738 mmHg 76%
    17:00 +11°C° 0.3 mm 4 mps 738 mmHg 81%
    18:00 +10°C° 0.3 mm 3 mps 738 mmHg 87%
    19:00 +10°C° 0.8 mm 4 mps 737 mmHg 88%
    20:00 +9°C° 0.8 mm 5 mps 737 mmHg 89%
    21:00 +9°C° 0.8 mm 5 mps 737 mmHg 90%
    22:00 +9°C° 0.3 mm 5 mps 737 mmHg 90%
    23:00 +10°C° 0.3 mm 4 mps 736 mmHg 91%
    Show more